| time (UTC) | temp F | wind direction | speed MPH | gust MPH | rain 1hr in | rain 24hr in | rain mn in | humidity % | barometer mb |
| 20260831191156 | 71 | 310 | 0.0 | 0.0 | 0.00 | 0.01 | 0.01 | 83 | 1024.2 |
| 20260831190651 | 71 | 313 | 0.0 | 0.0 | 0.00 | 0.01 | 0.01 | 86 | 1024.5 |
| 20260831190150 | 70 | 308 | 0.0 | 1.0 | 0.00 | 0.01 | 0.01 | 86 | 1024.6 |
| 20260831185646 | 70 | 13 | 0.0 | 1.0 | 0.00 | 0.01 | 0.01 | 86 | 1024.5 |
| 20260831185142 | 69 | 313 | 0.0 | 0.0 | 0.00 | 0.01 | 0.01 | 88 | 1024.8 |
| 20260831184641 | 70 | 267 | 1.0 | 1.0 | 0.00 | 0.01 | 0.01 | 89 | 1024.8 |
| 20260831184137 | 69 | 256 | 0.0 | 0.0 | 0.00 | 0.01 | 0.01 | 87 | 1024.6 |
| 20260831183631 | 70 | 231 | 0.0 | 0.0 | 0.00 | 0.01 | 0.01 | 88 | 1024.7 |
| 20260831183131 | 71 | 230 | 0.0 | 1.0 | 0.00 | 0.01 | 0.01 | 87 | 1024.7 |
| 20260831182629 | 71 | 230 | 0.0 | 1.0 | 0.00 | 0.01 | 0.01 | 87 | 1024.8 |
| 20260831182126 | 71 | 223 | 1.0 | 6.0 | 0.00 | 0.01 | 0.01 | 87 | 1024.9 |
| 20260831181625 | 72 | 224 | 1.0 | 1.0 | 0.00 | 0.01 | 0.01 | 88 | 1024.9 |
| 20260831181120 | 72 | 10 | 1.0 | 1.0 | 0.00 | 0.01 | 0.01 | 87 | 1024.8 |
| 20260831180615 | 72 | 40 | 2.0 | 3.0 | 0.00 | 0.01 | 0.01 | 86 | 1025.0 |
| 20260831180110 | 72 | 49 | 2.0 | 3.0 | 0.00 | 0.01 | 0.01 | 86 | 1025.0 |
| 20260831175605 | 73 | 20 | 3.0 | 3.0 | 0.00 | 0.01 | 0.01 | 85 | 1025.2 |
| 20260831175102 | 73 | 301 | 1.0 | 1.0 | 0.00 | 0.01 | 0.01 | 86 | 1025.1 |
| 20260831174556 | 72 | 326 | 0.0 | 1.0 | 0.00 | 0.01 | 0.01 | 87 | 1025.0 |
| 20260831174056 | 71 | 349 | 1.0 | 1.0 | 0.00 | 0.01 | 0.01 | 88 | 1025.0 |
| 20260831173554 | 71 | 344 | 2.0 | 2.0 | 0.00 | 0.01 | 0.01 | 87 | 1025.3 |
| 20260831173051 | 71 | 305 | 1.0 | 1.0 | 0.00 | 0.01 | 0.01 | 86 | 1024.9 |
| 20260831172545 | 71 | 356 | 1.0 | 1.0 | 0.00 | 0.01 | 0.01 | 87 | 1025.2 |
| 20260831172040 | 71 | 51 | 0.0 | 1.0 | 0.00 | 0.01 | 0.01 | 87 | 1025.4 |
| 20260831171536 | 72 | 39 | 1.0 | 2.0 | 0.00 | 0.01 | 0.01 | 87 | 1025.5 |
| 20260831171032 | 72 | 45 | 2.0 | 2.0 | 0.00 | 0.01 | 0.01 | 87 | 1025.6 |
| 20260831170528 | 72 | 156 | 5.0 | 6.0 | 0.00 | 0.01 | 0.01 | 86 | 1025.5 |
| 20260831170026 | 72 | 71 | 1.0 | 2.0 | 0.00 | 0.01 | 0.01 | 88 | 1025.6 |
| 20260831165526 | 71 | 53 | 0.0 | 1.0 | 0.00 | 0.01 | 0.01 | 88 | 1025.7 |
| 20260831165023 | 71 | 155 | 2.0 | 2.0 | 0.00 | 0.01 | 0.01 | 88 | 1025.6 |
| 20260831164518 | 71 | 62 | 0.0 | 1.0 | 0.00 | 0.01 | 0.01 | 88 | 1025.8 |
| 20260831164014 | 70 | 42 | 0.0 | 2.0 | 0.00 | 0.01 | 0.01 | 90 | 1025.8 |
| 20260831163509 | 70 | 86 | 1.0 | 2.0 | 0.00 | 0.01 | 0.01 | 89 | 1025.4 |
| 20260831163004 | 70 | 140 | 2.0 | 3.0 | 0.00 | 0.01 | 0.01 | 89 | 1025.8 |
| 20260831162458 | 70 | 150 | 2.0 | 3.0 | 0.00 | 0.01 | 0.01 | 90 | 1025.7 |
| 20260831161955 | 70 | 67 | 2.0 | 2.0 | 0.00 | 0.01 | 0.01 | 89 | 1025.9 |
| 20260831161453 | 70 | 58 | 1.0 | 3.0 | 0.00 | 0.01 | 0.01 | 90 | 1025.9 |
| 20260831160948 | 70 | 68 | 1.0 | 1.0 | 0.00 | 0.01 | 0.01 | 89 | 1026.0 |
| 20260831160447 | 70 | 5 | 0.0 | 1.0 | 0.00 | 0.01 | 0.01 | 90 | 1026.1 |
| 20260831155947 | 70 | 53 | 1.0 | 2.0 | 0.00 | 0.01 | 0.01 | 90 | 1026.2 |
| 20260831155442 | 69 | 72 | 1.0 | 3.0 | 0.00 | 0.01 | 0.01 | 89 | 1026.0 |
| 20260831154938 | 69 | 113 | 3.0 | 5.0 | 0.00 | 0.01 | 0.01 | 90 | 1025.9 |
| 20260831154434 | 69 | 31 | 1.0 | 1.0 | 0.00 | 0.01 | 0.01 | 91 | 1026.1 |
| 20260831153933 | 69 | 122 | 3.0 | 5.0 | 0.00 | 0.01 | 0.01 | 91 | 1026.0 |
| 20260831153429 | 69 | 106 | 1.0 | 7.0 | 0.00 | 0.01 | 0.01 | 91 | 1026.0 |
| 20260831152925 | 69 | 134 | 2.0 | 5.0 | 0.00 | 0.01 | 0.01 | 90 | 1026.3 |
| 20260831152420 | 69 | 141 | 3.0 | 3.0 | 0.00 | 0.01 | 0.01 | 90 | 1026.3 |
| 20260831151915 | 69 | 117 | 1.0 | 2.0 | 0.00 | 0.01 | 0.01 | 91 | 1026.1 |
| 20260831151414 | 69 | 119 | 3.0 | 3.0 | 0.00 | 0.01 | 0.01 | 90 | 1026.2 |
| 20260831150909 | 69 | 35 | 2.0 | 3.0 | 0.00 | 0.01 | 0.01 | 91 | 1026.3 |
| 20260831150405 | 68 | 124 | 3.0 | 3.0 | 0.00 | 0.01 | 0.01 | 92 | 1026.3 |
| 20260831145904 | 69 | 126 | 1.0 | 2.0 | 0.00 | 0.01 | 0.01 | 93 | 1026.4 |
| 20260831145400 | 68 | 33 | 1.0 | 2.0 | 0.00 | 0.01 | 0.01 | 93 | 1026.4 |
| 20260831144856 | 68 | 119 | 3.0 | 3.0 | 0.00 | 0.01 | 0.01 | 93 | 1026.0 |
| 20260831144352 | 67 | 119 | 3.0 | 5.0 | 0.00 | 0.01 | 0.01 | 93 | 1026.0 |
| 20260831143847 | 67 | 66 | 0.0 | 3.0 | 0.00 | 0.01 | 0.01 | 94 | 1026.0 |
| 20260831143342 | 66 | 114 | 3.0 | 3.0 | 0.00 | 0.01 | 0.01 | 97 | 1026.3 |
| 20260831142837 | 66 | 114 | 3.0 | 3.0 | 0.00 | 0.01 | 0.01 | 97 | 1026.2 |
| 20260831142332 | 66 | 107 | 2.0 | 2.0 | 0.00 | 0.01 | 0.01 | 98 | 1026.2 |
| 20260831141832 | 66 | 186 | 0.0 | 1.0 | 0.00 | 0.01 | 0.01 | 98 | 1026.3 |
| 20260831141327 | 65 | 337 | 1.0 | 2.0 | 0.00 | 0.01 | 0.01 | 98 | 1026.4 |
| 20260831140822 | 66 | 51 | 1.0 | 2.0 | 0.00 | 0.01 | 0.01 | 98 | 1026.3 |
| 20260831140316 | 65 | 155 | 1.0 | 1.0 | 0.00 | 0.01 | 0.01 | 98 | 1026.4 |
| 20260831135815 | 65 | 58 | 1.0 | 1.0 | 0.00 | 0.01 | 0.01 | 98 | 1026.3 |
| 20260831135310 | 64 | 320 | 1.0 | 1.0 | 0.00 | 0.01 | 0.01 | 98 | 1026.1 |
| 20260831134805 | 64 | 325 | 1.0 | 1.0 | 0.00 | 0.01 | 0.01 | 98 | 1026.1 |
| 20260831134302 | 64 | 112 | 1.0 | 2.0 | 0.00 | 0.01 | 0.01 | 98 | 1026.3 |
| 20260831133801 | 64 | 116 | 1.0 | 2.0 | 0.00 | 0.01 | 0.01 | 98 | 1026.3 |
| 20260831133300 | 64 | 21 | 0.0 | 2.0 | 0.00 | 0.01 | 0.01 | 99 | 1026.3 |
| 20260831132755 | 64 | 356 | 1.0 | 2.0 | 0.00 | 0.01 | 0.01 | 98 | 1026.3 |
| 20260831132250 | 64 | 16 | 2.0 | 3.0 | 0.00 | 0.01 | 0.01 | 98 | 1026.3 |
| 20260831131744 | 64 | 9 | 0.0 | 1.0 | 0.00 | 0.01 | 0.01 | 99 | 1026.4 |
| 20260831131241 | 64 | 50 | 3.0 | 3.0 | 0.00 | 0.01 | 0.01 | 98 | 1026.3 |
| 20260831130736 | 64 | 23 | 0.0 | 2.0 | 0.00 | 0.01 | 0.01 | 99 | 1026.3 |
| 20260831130231 | 64 | 1 | 1.0 | 2.0 | 0.00 | 0.01 | 0.01 | 98 | 1026.2 |
| 20260831125729 | 64 | 342 | 1.0 | 2.0 | 0.00 | 0.01 | 0.01 | 98 | 1026.5 |
| 20260831125226 | 64 | 14 | 1.0 | 2.0 | 0.00 | 0.01 | 0.01 | 99 | 1026.4 |
| 20260831124720 | 64 | 113 | 1.0 | 2.0 | 0.00 | 0.01 | 0.01 | 98 | 1026.2 |
| 20260831124216 | 64 | 34 | 1.0 | 2.0 | 0.00 | 0.01 | 0.01 | 98 | 1026.5 |
| 20260831123716 | 63 | 45 | 1.0 | 2.0 | 0.00 | 0.01 | 0.01 | 98 | 1026.2 |
| 20260831123215 | 63 | 13 | 1.0 | 2.0 | 0.00 | 0.01 | 0.01 | 98 | 1026.3 |
| 20260831122710 | 64 | 7 | 0.0 | 1.0 | 0.00 | 0.01 | 0.01 | 99 | 1026.3 |
| 20260831122206 | 63 | 44 | 1.0 | 1.0 | 0.00 | 0.01 | 0.01 | 98 | 1026.4 |
| 20260831121705 | 63 | 23 | 0.0 | 1.0 | 0.00 | 0.01 | 0.01 | 98 | 1026.3 |
| 20260831121202 | 63 | 19 | 0.0 | 0.0 | 0.00 | 0.01 | 0.01 | 98 | 1026.1 |
| 20260831120657 | 63 | 13 | 0.0 | 0.0 | 0.00 | 0.01 | 0.01 | 99 | 1026.3 |
| 20260831120151 | 63 | 335 | 0.0 | 0.0 | 0.00 | 0.01 | 0.01 | 99 | 1026.4 |
| 20260831115647 | 62 | 71 | 0.0 | 0.0 | 0.00 | 0.01 | 0.01 | 99 | 1026.5 |
| 20260831115143 | 62 | 71 | 0.0 | 0.0 | 0.00 | 0.01 | 0.01 | 99 | 1026.7 |
| 20260831114642 | 62 | 71 | 0.0 | 0.0 | 0.00 | 0.01 | 0.01 | 99 | 1026.4 |
| 20260831114137 | 62 | 49 | 1.0 | 2.0 | 0.00 | 0.01 | 0.01 | 98 | 1026.3 |
| 20260831113636 | 62 | 46 | 0.0 | 0.0 | 0.00 | 0.01 | 0.01 | 98 | 1026.5 |
| 20260831113132 | 62 | 39 | 0.0 | 0.0 | 0.00 | 0.01 | 0.01 | 99 | 1026.3 |
| 20260831112631 | 62 | 30 | 0.0 | 0.0 | 0.00 | 0.01 | 0.01 | 98 | 1026.2 |
| 20260831112126 | 62 | 337 | 0.0 | 0.0 | 0.00 | 0.01 | 0.01 | 98 | 1026.2 |
| 20260831111622 | 62 | 267 | 0.0 | 0.0 | 0.00 | 0.01 | 0.01 | 99 | 1026.0 |
| 20260831111118 | 62 | 345 | 0.0 | 0.0 | 0.00 | 0.01 | 0.01 | 98 | 1026.2 |
| 20260831110613 | 62 | 233 | 0.0 | 0.0 | 0.00 | 0.01 | 0.01 | 98 | 1025.9 |
| 20260831110109 | 61 | 154 | 0.0 | 0.0 | 0.00 | 0.01 | 0.01 | 98 | 1026.0 |
| 20260831105607 | 61 | 158 | 0.0 | 0.0 | 0.00 | 0.01 | 0.01 | 98 | 1025.9 |
| 20260831105102 | 61 | 189 | 0.0 | 0.0 | 0.05 | 0.01 | 0.01 | 98 | 1025.7 |
| 20260831104558 | 62 | 275 | 0.0 | 0.0 | 0.05 | 0.01 | 0.01 | 98 | 1026.0 |
| 20260831104054 | 62 | 241 | 0.0 | 0.0 | 0.00 | 0.00 | 0.00 | 98 | 1026.0 |
| 20260831103549 | 62 | 335 | 0.0 | 0.0 | 0.00 | 0.00 | 0.00 | 98 | 1025.9 |
| 20260831103045 | 62 | 296 | 0.0 | 0.0 | 0.00 | 0.00 | 0.00 | 99 | 1025.8 |
| 20260831102544 | 62 | 297 | 1.0 | 1.0 | 0.00 | 0.00 | 0.00 | 98 | 1025.6 |
| 20260831102040 | 62 | 289 | 0.0 | 0.0 | 0.00 | 0.00 | 0.00 | 98 | 1025.7 |
| 20260831101534 | 62 | 235 | 0.0 | 0.0 | 0.00 | 0.00 | 0.00 | 99 | 1025.3 |
| 20260831101031 | 61 | 287 | 0.0 | 0.0 | 0.00 | 0.00 | 0.00 | 99 | 1025.3 |
| 20260831100526 | 61 | 280 | 0.0 | 0.0 | 0.00 | 0.00 | 0.00 | 98 | 1025.3 |
| 20260831100023 | 61 | 335 | 0.0 | 0.0 | 0.00 | 0.00 | 0.00 | 98 | 1025.5 |
| 20260831095521 | 61 | 335 | 0.0 | 0.0 | 0.00 | 0.00 | 0.00 | 98 | 1025.4 |
| 20260831095016 | 61 | 309 | 0.0 | 0.0 | 0.00 | 0.00 | 0.00 | 98 | 1025.4 |
| 20260831094512 | 61 | 281 | 0.0 | 0.0 | 0.00 | 0.00 | 0.00 | 98 | 1025.7 |
| 20260831094008 | 62 | 279 | 0.0 | 0.0 | 0.00 | 0.00 | 0.00 | 98 | 1025.8 |
| 20260831093507 | 61 | 269 | 0.0 | 0.0 | 0.00 | 0.00 | 0.00 | 98 | 1025.5 |
| 20260831093004 | 61 | 279 | 0.0 | 0.0 | 0.00 | 0.00 | 0.00 | 98 | 1025.2 |
| 20260831092459 | 62 | 282 | 0.0 | 0.0 | 0.00 | 0.00 | 0.00 | 98 | 1025.3 |
| 20260831091955 | 62 | 283 | 0.0 | 0.0 | 0.00 | 0.00 | 0.00 | 98 | 1025.3 |
| 20260831091449 | 62 | 258 | 0.0 | 0.0 | 0.00 | 0.00 | 0.00 | 98 | 1025.1 |
| 20260831090944 | 62 | 286 | 0.0 | 0.0 | 0.00 | 0.00 | 0.00 | 98 | 1025.3 |
| 20260831090441 | 62 | 288 | 0.0 | 0.0 | 0.00 | 0.00 | 0.00 | 98 | 1025.4 |
| 20260831085937 | 62 | 288 | 0.0 | 0.0 | 0.00 | 0.00 | 0.00 | 98 | 1025.4 |
| 20260831085432 | 62 | 288 | 0.0 | 0.0 | 0.00 | 0.00 | 0.00 | 98 | 1025.2 |
| 20260831084931 | 62 | 288 | 0.0 | 0.0 | 0.00 | 0.00 | 0.00 | 98 | 1025.2 |
| 20260831084427 | 62 | 288 | 0.0 | 0.0 | 0.00 | 0.00 | 0.00 | 98 | 1025.0 |
| 20260831083924 | 62 | 288 | 0.0 | 0.0 | 0.00 | 0.00 | 0.00 | 98 | 1025.1 |
| 20260831083418 | 62 | 288 | 0.0 | 0.0 | 0.00 | 0.00 | 0.00 | 98 | 1025.2 |
| 20260831082917 | 62 | 288 | 0.0 | 0.0 | 0.00 | 0.00 | 0.00 | 98 | 1025.4 |
| 20260831082412 | 62 | 288 | 0.0 | 0.0 | 0.00 | 0.00 | 0.00 | 98 | 1025.4 |
| 20260831081908 | 62 | 288 | 0.0 | 0.0 | 0.00 | 0.00 | 0.00 | 98 | 1025.4 |
| 20260831081403 | 62 | 288 | 0.0 | 0.0 | 0.00 | 0.00 | 0.00 | 98 | 1025.4 |
| 20260831080859 | 62 | 231 | 0.0 | 0.0 | 0.00 | 0.00 | 0.00 | 98 | 1025.1 |
| 20260831080354 | 62 | 214 | 0.0 | 0.0 | 0.00 | 0.00 | 0.00 | 98 | 1025.3 |
| 20260831075849 | 62 | 226 | 0.0 | 0.0 | 0.00 | 0.00 | 0.00 | 98 | 1025.4 |
| 20260831075344 | 62 | 230 | 0.0 | 0.0 | 0.00 | 0.00 | 0.00 | 98 | 1025.2 |
| 20260831074839 | 62 | 247 | 0.0 | 0.0 | 0.00 | 0.00 | 0.00 | 98 | 1025.1 |
| 20260831074338 | 62 | 282 | 0.0 | 0.0 | 0.00 | 0.00 | 0.00 | 98 | 1025.2 |
| 20260831073834 | 62 | 267 | 0.0 | 0.0 | 0.00 | 0.00 | 0.00 | 98 | 1025.2 |
| 20260831073333 | 62 | 270 | 0.0 | 0.0 | 0.00 | 0.00 | 0.00 | 98 | 1025.1 |
| 20260831072828 | 62 | 242 | 0.0 | 0.0 | 0.00 | 0.00 | 0.00 | 98 | 1025.2 |
| 20260831072324 | 62 | 237 | 0.0 | 0.0 | 0.00 | 0.00 | 0.00 | 98 | 1025.1 |
| 20260831071820 | 62 | 254 | 0.0 | 1.0 | 0.00 | 0.00 | 0.00 | 98 | 1025.1 |
| 20260831071319 | 62 | 243 | 0.0 | 0.0 | 0.00 | 0.00 | 0.00 | 98 | 1025.2 |
| 20260831070814 | 62 | 316 | 0.0 | 0.0 | 0.00 | 0.00 | 0.00 | 98 | 1025.0 |
| 20260831070313 | 63 | 304 | 0.0 | 0.0 | 0.00 | 0.00 | 0.00 | 98 | 1025.0 |
| 20260831065812 | 63 | 328 | 0.0 | 0.0 | 0.00 | 0.00 | 0.00 | 98 | 1025.1 |
| 20260831065310 | 63 | 287 | 0.0 | 0.0 | 0.00 | 0.00 | 0.00 | 98 | 1025.1 |
| 20260831064806 | 63 | 288 | 0.0 | 0.0 | 0.00 | 0.00 | 0.00 | 98 | 1025.1 |
| 20260831064301 | 63 | 301 | 0.0 | 0.0 | 0.00 | 0.00 | 0.00 | 98 | 1025.2 |
| 20260831063756 | 63 | 301 | 0.0 | 0.0 | 0.00 | 0.00 | 0.00 | 98 | 1025.3 |
| 20260831063251 | 63 | 301 | 0.0 | 0.0 | 0.00 | 0.00 | 0.00 | 98 | 1025.1 |
| 20260831062746 | 63 | 344 | 0.0 | 0.0 | 0.00 | 0.00 | 0.00 | 98 | 1025.1 |
| 20260831062241 | 62 | 303 | 0.0 | 0.0 | 0.00 | 0.00 | 0.00 | 98 | 1025.3 |
| 20260831061739 | 62 | 327 | 0.0 | 0.0 | 0.00 | 0.00 | 0.00 | 98 | 1025.3 |
| 20260831061234 | 62 | 331 | 0.0 | 0.0 | 0.00 | 0.00 | 0.00 | 98 | 1025.4 |
| 20260831060730 | 62 | 319 | 0.0 | 0.0 | 0.00 | 0.00 | 0.00 | 98 | 1025.3 |
| 20260831060225 | 62 | 323 | 0.0 | 0.0 | 0.00 | 0.00 | 0.00 | 98 | 1025.2 |
| 20260831055724 | 62 | 329 | 0.0 | 0.0 | 0.00 | 0.00 | 0.00 | 98 | 1025.3 |
| 20260831055224 | 62 | 337 | 0.0 | 0.0 | 0.00 | 0.00 | 0.00 | 98 | 1025.3 |
| 20260831054719 | 62 | 328 | 0.0 | 0.0 | 0.00 | 0.00 | 0.00 | 98 | 1025.4 |
| 20260831054214 | 61 | 333 | 0.0 | 0.0 | 0.00 | 0.00 | 0.00 | 98 | 1025.2 |
| 20260831053708 | 62 | 322 | 0.0 | 0.0 | 0.00 | 0.00 | 0.00 | 98 | 1025.1 |
| 20260831053207 | 62 | 289 | 0.0 | 1.0 | 0.00 | 0.00 | 0.00 | 98 | 1025.2 |
| 20260831052706 | 62 | 319 | 0.0 | 0.0 | 0.00 | 0.00 | 0.00 | 98 | 1025.3 |
| 20260831052206 | 62 | 299 | 0.0 | 0.0 | 0.00 | 0.00 | 0.00 | 98 | 1025.1 |
| 20260831051703 | 61 | 305 | 0.0 | 0.0 | 0.00 | 0.00 | 0.00 | 98 | 1025.2 |
| 20260831051202 | 62 | 300 | 0.0 | 0.0 | 0.00 | 0.00 | 0.00 | 98 | 1025.1 |
| 20260831050657 | 62 | 291 | 0.0 | 0.0 | 0.00 | 0.00 | 0.00 | 98 | 1025.3 |
| 20260831050156 | 62 | 266 | 0.0 | 0.0 | 0.00 | 0.00 | 0.00 | 98 | 1025.2 |
| 20260831045651 | 62 | 258 | 0.0 | 0.0 | 0.00 | 0.00 | 0.00 | 98 | 1025.1 |
| 20260831045145 | 63 | 291 | 0.0 | 0.0 | 0.00 | 0.00 | 0.00 | 98 | 1025.1 |
| 20260831044640 | 63 | 258 | 0.0 | 0.0 | 0.00 | 0.00 | 0.00 | 98 | 1025.3 |
| 20260831044135 | 63 | 235 | 1.0 | 1.0 | 0.00 | 0.00 | 0.00 | 98 | 1025.4 |
| 20260831043631 | 63 | 220 | 0.0 | 0.0 | 0.00 | 0.00 | 0.00 | 98 | 1025.4 |
| 20260831043126 | 63 | 257 | 0.0 | 0.0 | 0.00 | 0.00 | 0.00 | 98 | 1025.6 |
| 20260831042625 | 63 | 211 | 1.0 | 1.0 | 0.00 | 0.00 | 0.00 | 98 | 1025.5 |
| 20260831042120 | 63 | 292 | 2.0 | 3.0 | 0.00 | 0.00 | 0.00 | 98 | 1025.5 |
| 20260831041615 | 63 | 292 | 2.0 | 3.0 | 0.00 | 0.00 | 0.00 | 98 | 1025.3 |
| 20260831041114 | 63 | 292 | 2.0 | 3.0 | 0.00 | 0.00 | 0.00 | 98 | 1025.3 |
| 20260831040609 | 63 | 292 | 2.0 | 3.0 | 0.00 | 0.00 | 0.00 | 98 | 1025.4 |
| 20260831040103 | 63 | 292 | 2.0 | 3.0 | 0.00 | 0.00 | 0.00 | 98 | 1025.5 |
| 20260831035555 | 63 | 292 | 2.0 | 3.0 | 0.00 | 0.03 | 0.03 | 98 | 1025.6 |
| 20260831035051 | 63 | 292 | 2.0 | 3.0 | 0.00 | 0.03 | 0.03 | 98 | 1025.6 |
| 20260831034550 | 63 | 292 | 2.0 | 3.0 | 0.00 | 0.03 | 0.03 | 98 | 1025.4 |
| 20260831034046 | 63 | 286 | 1.0 | 1.0 | 0.00 | 0.03 | 0.03 | 98 | 1025.4 |
| 20260831033541 | 64 | 289 | 1.0 | 2.0 | 0.00 | 0.03 | 0.03 | 98 | 1025.4 |
| 20260831033036 | 64 | 257 | 0.0 | 0.0 | 0.00 | 0.03 | 0.03 | 98 | 1025.5 |
| 20260831032535 | 64 | 288 | 0.0 | 0.0 | 0.00 | 0.03 | 0.03 | 98 | 1025.5 |
| 20260831032031 | 64 | 293 | 0.0 | 1.0 | 0.00 | 0.03 | 0.03 | 98 | 1025.6 |
| 20260831031530 | 64 | 305 | 0.0 | 0.0 | 0.00 | 0.03 | 0.03 | 98 | 1025.6 |
| 20260831031025 | 64 | 303 | 1.0 | 1.0 | 0.00 | 0.03 | 0.03 | 98 | 1025.6 |
| 20260831030524 | 64 | 297 | 0.0 | 1.0 | 0.00 | 0.03 | 0.03 | 98 | 1025.5 |
| 20260831030023 | 64 | 332 | 0.0 | 0.0 | 0.00 | 0.03 | 0.03 | 98 | 1025.5 |
| 20260831025516 | 63 | 302 | 0.0 | 0.0 | 0.00 | 0.03 | 0.03 | 98 | 1025.6 |
| 20260831025011 | 63 | 301 | 0.0 | 0.0 | 0.00 | 0.03 | 0.03 | 98 | 1025.4 |
| 20260831024506 | 63 | 337 | 0.0 | 0.0 | 0.00 | 0.03 | 0.03 | 98 | 1025.5 |
| 20260831024000 | 63 | 342 | 0.0 | 0.0 | 0.00 | 0.03 | 0.03 | 98 | 1025.5 |
| 20260831023458 | 63 | 324 | 0.0 | 0.0 | 0.00 | 0.03 | 0.03 | 98 | 1025.5 |
| 20260831022953 | 63 | 272 | 0.0 | 0.0 | 0.00 | 0.03 | 0.03 | 98 | 1025.2 |
| 20260831022452 | 63 | 285 | 0.0 | 0.0 | 0.00 | 0.03 | 0.03 | 98 | 1025.3 |
| 20260831021948 | 63 | 353 | 0.0 | 0.0 | 0.00 | 0.03 | 0.03 | 98 | 1025.3 |
| 20260831021446 | 63 | 345 | 0.0 | 0.0 | 0.00 | 0.03 | 0.03 | 98 | 1025.3 |
| 20260831020943 | 63 | 286 | 0.0 | 0.0 | 0.00 | 0.03 | 0.03 | 98 | 1025.1 |
| 20260831020442 | 63 | 274 | 0.0 | 0.0 | 0.00 | 0.03 | 0.03 | 98 | 1025.2 |
| 20260831015937 | 63 | 208 | 0.0 | 0.0 | 0.00 | 0.03 | 0.03 | 98 | 1025.0 |
| 20260831015433 | 63 | 257 | 0.0 | 0.0 | 0.00 | 0.03 | 0.03 | 98 | 1025.0 |
| 20260831014928 | 63 | 220 | 0.0 | 1.0 | 0.00 | 0.03 | 0.03 | 98 | 1025.1 |
| 20260831014423 | 63 | 210 | 1.0 | 1.0 | 0.00 | 0.03 | 0.03 | 98 | 1025.0 |
| 20260831013919 | 63 | 211 | 0.0 | 1.0 | 0.00 | 0.03 | 0.03 | 98 | 1025.0 |
| 20260831013414 | 63 | 226 | 1.0 | 1.0 | 0.00 | 0.03 | 0.03 | 97 | 1025.1 |
| 20260831012908 | 63 | 246 | 0.0 | 1.0 | 0.00 | 0.03 | 0.03 | 97 | 1025.2 |
| 20260831012403 | 63 | 260 | 0.0 | 0.0 | 0.00 | 0.03 | 0.03 | 97 | 1025.1 |
| 20260831011857 | 63 | 270 | 0.0 | 0.0 | 0.00 | 0.03 | 0.03 | 97 | 1025.4 |
| 20260831011352 | 63 | 285 | 0.0 | 0.0 | 0.00 | 0.03 | 0.03 | 97 | 1025.2 |
| 20260831010848 | 63 | 325 | 0.0 | 1.0 | 0.00 | 0.03 | 0.03 | 97 | 1025.2 |
| 20260831010348 | 63 | 306 | 0.0 | 1.0 | 0.00 | 0.03 | 0.03 | 97 | 1025.0 |
| 20260831005844 | 64 | 300 | 1.0 | 1.0 | 0.00 | 0.03 | 0.03 | 97 | 1025.1 |
| 20260831005339 | 64 | 300 | 1.0 | 1.0 | 0.00 | 0.03 | 0.03 | 97 | 1025.0 |
| 20260831004834 | 64 | 300 | 1.0 | 1.0 | 0.00 | 0.03 | 0.03 | 97 | 1025.0 |
| 20260831004330 | 64 | 301 | 1.0 | 2.0 | 0.00 | 0.03 | 0.03 | 97 | 1025.1 |
| 20260831003825 | 64 | 317 | 0.0 | 1.0 | 0.00 | 0.03 | 0.03 | 97 | 1024.9 |
| 20260831003321 | 64 | 327 | 1.0 | 2.0 | 0.00 | 0.03 | 0.03 | 97 | 1024.7 |
| 20260831002820 | 64 | 338 | 1.0 | 2.0 | 0.00 | 0.03 | 0.03 | 97 | 1024.6 |
| 20260831002314 | 64 | 348 | 3.0 | 3.0 | 0.00 | 0.03 | 0.03 | 97 | 1024.3 |
| 20260831001810 | 64 | 310 | 2.0 | 2.0 | 0.00 | 0.03 | 0.03 | 97 | 1024.6 |
| 20260831001305 | 64 | 291 | 2.0 | 3.0 | 0.00 | 0.03 | 0.03 | 97 | 1024.3 |
| 20260831000803 | 64 | 283 | 1.0 | 3.0 | 0.00 | 0.03 | 0.03 | 97 | 1024.3 |
| 20260831000303 | 64 | 338 | 2.0 | 2.0 | 0.00 | 0.03 | 0.03 | 97 | 1024.0 |
| 20260830235801 | 64 | 319 | 2.0 | 2.0 | 0.00 | 0.03 | 0.03 | 97 | 1024.0 |
| 20260830235256 | 64 | 332 | 4.0 | 6.0 | 0.00 | 0.03 | 0.03 | 97 | 1024.0 |
| 20260830234751 | 64 | 309 | 0.0 | 1.0 | 0.00 | 0.03 | 0.03 | 97 | 1023.8 |
| 20260830234247 | 64 | 336 | 0.0 | 0.0 | 0.00 | 0.03 | 0.03 | 96 | 1023.8 |
| 20260830233742 | 64 | 336 | 0.0 | 0.0 | 0.00 | 0.03 | 0.03 | 96 | 1023.9 |
| 20260830233237 | 64 | 336 | 0.0 | 0.0 | 0.00 | 0.03 | 0.03 | 96 | 1023.6 |
| 20260830232732 | 64 | 336 | 0.0 | 0.0 | 0.00 | 0.03 | 0.03 | 96 | 1023.9 |
| 20260830232229 | 64 | 323 | 1.0 | 1.0 | 0.00 | 0.03 | 0.03 | 96 | 1023.6 |
| 20260830231725 | 64 | 0 | 1.0 | 2.0 | 0.00 | 0.03 | 0.03 | 96 | 1023.8 |
| 20260830231224 | 64 | 350 | 1.0 | 2.0 | 0.00 | 0.03 | 0.03 | 96 | 1023.6 |
| 20260830230719 | 64 | 336 | 1.0 | 1.0 | 0.00 | 0.03 | 0.03 | 96 | 1023.6 |
| 20260830230214 | 64 | 336 | 0.0 | 0.0 | 0.00 | 0.03 | 0.03 | 96 | 1023.6 |
| 20260830225709 | 64 | 301 | 1.0 | 1.0 | 0.00 | 0.03 | 0.03 | 96 | 1023.6 |
| 20260830225204 | 64 | 339 | 1.0 | 1.0 | 0.00 | 0.03 | 0.03 | 96 | 1023.4 |
| 20260830224703 | 64 | 338 | 1.0 | 2.0 | 0.00 | 0.03 | 0.03 | 96 | 1023.3 |
| 20260830224159 | 64 | 347 | 0.0 | 1.0 | 0.00 | 0.03 | 0.03 | 96 | 1023.5 |
| 20260830223655 | 64 | 313 | 0.0 | 1.0 | 0.00 | 0.03 | 0.03 | 96 | 1023.5 |
| 20260830223155 | 64 | 313 | 1.0 | 1.0 | 0.00 | 0.03 | 0.03 | 96 | 1023.6 |
| 20260830222650 | 64 | 258 | 1.0 | 2.0 | 0.00 | 0.03 | 0.03 | 96 | 1023.9 |
| 20260830222146 | 64 | 278 | 1.0 | 2.0 | 0.00 | 0.03 | 0.03 | 96 | 1023.9 |
| 20260830221641 | 64 | 269 | 0.0 | 0.0 | 0.00 | 0.03 | 0.03 | 96 | 1024.0 |
| 20260830221137 | 64 | 306 | 0.0 | 0.0 | 0.00 | 0.03 | 0.03 | 96 | 1024.0 |
| 20260830220632 | 64 | 286 | 1.0 | 1.0 | 0.00 | 0.03 | 0.03 | 96 | 1023.8 |
| 20260830220126 | 64 | 307 | 1.0 | 1.0 | 0.00 | 0.03 | 0.03 | 96 | 1023.9 |
| 20260830215625 | 64 | 308 | 0.0 | 0.0 | 0.00 | 0.03 | 0.03 | 96 | 1024.0 |
| 20260830215120 | 64 | 296 | 1.0 | 1.0 | 0.00 | 0.03 | 0.03 | 96 | 1023.9 |
| 20260830214615 | 63 | 297 | 1.0 | 5.0 | 0.00 | 0.03 | 0.03 | 95 | 1024.1 |
| 20260830214109 | 64 | 337 | 1.0 | 1.0 | 0.07 | 0.03 | 0.03 | 95 | 1024.0 |
| 20260830213603 | 64 | 326 | 3.0 | 3.0 | 0.00 | 0.02 | 0.02 | 95 | 1024.1 |
| 20260830213059 | 64 | 305 | 2.0 | 5.0 | 0.05 | 0.02 | 0.02 | 95 | 1024.2 |
| 20260830212554 | 64 | 336 | 3.0 | 5.0 | 0.07 | 0.01 | 0.01 | 95 | 1024.2 |
| 20260830212049 | 64 | 265 | 3.0 | 5.0 | 0.07 | 0.01 | 0.01 | 94 | 1024.4 |
| 20260830211544 | 64 | 285 | 3.0 | 5.0 | 0.00 | 0.00 | 0.00 | 94 | 1024.2 |
| 20260830211043 | 64 | 307 | 5.0 | 9.0 | 0.00 | 0.00 | 0.00 | 94 | 1024.2 |
| 20260830210538 | 66 | 290 | 5.0 | 11.0 | 0.00 | 0.00 | 0.00 | 93 | 1024.0 |
| 20260830210032 | 67 | 337 | 5.0 | 6.0 | 0.00 | 0.00 | 0.00 | 90 | 1024.2 |
| 20260830205530 | 68 | 326 | 5.0 | 6.0 | 0.00 | 0.00 | 0.00 | 86 | 1023.9 |
| 20260830205026 | 69 | 235 | 4.0 | 7.0 | 0.00 | 0.00 | 0.00 | 84 | 1023.5 |
| 20260830204525 | 69 | 318 | 7.0 | 8.0 | 0.00 | 0.00 | 0.00 | 82 | 1023.6 |
| 20260830204024 | 70 | 273 | 8.0 | 11.0 | 0.00 | 0.00 | 0.00 | 82 | 1023.9 |
| 20260830203520 | 71 | 348 | 3.0 | 7.0 | 0.00 | 0.00 | 0.00 | 81 | 1023.8 |
| 20260830203010 | 71 | 304 | 4.0 | 7.0 | 0.00 | 0.00 | 0.00 | 80 | 1023.2 |
| 20260830202504 | 71 | 312 | 3.0 | 5.0 | 0.00 | 0.00 | 0.00 | 79 | 1023.5 |
| 20260830202001 | 72 | 233 | 3.0 | 6.0 | 0.00 | 0.00 | 0.00 | 78 | 1023.0 |
| 20260830201459 | 71 | 295 | 4.0 | 6.0 | 0.00 | 0.00 | 0.00 | 77 | 1022.8 |
| 20260830200954 | 71 | 270 | 3.0 | 5.0 | 0.00 | 0.00 | 0.00 | 78 | 1023.5 |
| 20260830200449 | 71 | 288 | 1.0 | 5.0 | 0.00 | 0.00 | 0.00 | 81 | 1023.3 |
| 20260830195948 | 71 | 309 | 3.0 | 5.0 | 0.00 | 0.00 | 0.00 | 78 | 1023.1 |
| 20260830195444 | 72 | 303 | 3.0 | 3.0 | 0.00 | 0.00 | 0.00 | 78 | 1022.9 |
| 20260830194942 | 72 | 312 | 1.0 | 5.0 | 0.00 | 0.00 | 0.00 | 77 | 1023.0 |
| 20260830194441 | 72 | 300 | 3.0 | 5.0 | 0.00 | 0.00 | 0.00 | 78 | 1023.2 |
| 20260830193936 | 72 | 297 | 0.0 | 1.0 | 0.00 | 0.00 | 0.00 | 79 | 1023.1 |
| 20260830193435 | 73 | 252 | 0.0 | 1.0 | 0.00 | 0.00 | 0.00 | 78 | 1023.1 |
| 20260830192930 | 73 | 259 | 0.0 | 1.0 | 0.00 | 0.00 | 0.00 | 78 | 1023.0 |
| 20260830192425 | 73 | 279 | 2.0 | 5.0 | 0.00 | 0.00 | 0.00 | 75 | 1023.0 |
| 20260830191920 | 74 | 249 | 2.0 | 3.0 | 0.00 | 0.00 | 0.00 | 75 | 1023.2 |